Satellite: GO-32
Catalog number: 25397
Epoch time:      09050.80143875
Element set:     825
Inclination:      098.3392 deg
RA of node:       079.3689 deg
Eccentricity:    0.0000645
Arg of perigee:   190.5221 deg
Mean anomaly:     169.5935 deg
Mean motion:   14.23155230 rev/day
Decay rate:        2.6e-07 rev/day^2
Epoch rev:           55143
Checksum:              308

Satellite: NO-44
Catalog number: 26931
Epoch time:      09050.88688318
Element set:     102
Inclination:      067.0538 deg
RA of node:       006.5387 deg
Eccentricity:    0.0005404
Arg of perigee:   259.3833 deg
Mean anomaly:     100.6665 deg
Mean motion:   14.29548097 rev/day
Decay rate:       1.11e-06 rev/day^2
Epoch rev:           38581
Checksum:              311

Satellite: SO-50
Catalog number: 27607
Epoch time:      09050.47293040
Element set:     818
Inclination:      064.5595 deg
RA of node:       022.6047 deg
Eccentricity:    0.0078623
Arg of perigee:   230.9581 deg
Mean anomaly:     128.4528 deg
Mean motion:   14.71416328 rev/day
Decay rate:       1.00e-06 rev/day^2
Epoch rev:           33135
Checksum:              289

Satellite: CO-55
Catalog number: 27844
Epoch time:      09049.24571092
Element set:    0515
Inclination:      098.7161 deg
RA of node:       060.0793 deg
Eccentricity:    0.0010401
Arg of perigee:   123.1987 deg
Mean anomaly:     237.0184 deg
Mean motion:   14.20622622 rev/day
Decay rate:        2.0e-07 rev/day^2
Epoch rev:           29237
Checksum:              280

Satellite: CO-57
Catalog number: 27848
Epoch time:      09050.54513062
Element set:     462
Inclination:      098.7172 deg
RA of node:       060.4246 deg
Eccentricity:    0.0010340
Arg of perigee:   124.4891 deg
Mean anomaly:     235.7268 deg
Mean motion:   14.20427135 rev/day
Decay rate:        1.7e-07 rev/day^2
Epoch rev:           29252
Checksum:              287

Satellite: AO-51
Catalog number: 28375
Epoch time:      09050.51739396
Element set:     321
Inclination:      098.0563 deg
RA of node:       066.9582 deg
Eccentricity:    0.0084369
Arg of perigee:   121.6765 deg
Mean anomaly:     239.2690 deg
Mean motion:   14.40633400 rev/day
Decay rate:        3.0e-08 rev/day^2
Epoch rev:           24401
Checksum:              301

Satellite: CO-56
Catalog number: 28941
Epoch time:      09050.47929941
Element set:     833
Inclination:      098.1275 deg
RA of node:       204.1193 deg
Eccentricity:    0.0119055
Arg of perigee:   213.5933 deg
Mean anomaly:     145.7763 deg
Mean motion:   15.71786257 rev/day
Decay rate:     4.8723e-04 rev/day^2
Epoch rev:           16868
Checksum:              350

Satellite: CP3
Catalog number: 31128
Epoch time:      09050.79790202
Element set:     560
Inclination:      098.0057 deg
RA of node:       109.3264 deg
Eccentricity:    0.0101661
Arg of perigee:   289.1053 deg
Mean anomaly:     069.9140 deg
Mean motion:   14.52018655 rev/day
Decay rate:       -4.8e-07 rev/day^2
Epoch rev:            9786
Checksum:              295

Satellite: CP4
Catalog number: 31132
Epoch time:      09050.70402302
Element set:     538
Inclination:      098.0083 deg
RA of node:       112.6423 deg
Eccentricity:    0.0084462
Arg of perigee:   279.2452 deg
Mean anomaly:     079.9200 deg
Mean motion:   14.55183640 rev/day
Decay rate:       -2.0e-08 rev/day^2
Epoch rev:            9794
Checksum:              271

Satellite: CO-65
Catalog number: 32785
Epoch time:      09049.18420443
Element set:    0303
Inclination:      097.9618 deg
RA of node:       114.0551 deg
Eccentricity:    0.0016079
Arg of perigee:   059.8139 deg
Mean anomaly:     300.4663 deg
Mean motion:   14.81449032 rev/day
Decay rate:       -3.0e-07 rev/day^2
Epoch rev:           04382
Checksum:              295

/EX
SB KEPS @ AMSAT  $ORB09050.W
Orbital Elements  09050.WEATHER

HR AMSAT ORBITAL ELEMENTS FOR WEATHER SATELLITES
FROM WA5QGD FORT WORTH,TX February 19, 2009
Send Subscribe/unsubscribe to KEPS at 
http://www.amsat.org/mailman/listinfo/keps
BID: ORB09050.W
TO ALL RADIO AMATEURS BT

Satellite: NOAA-10
Catalog number: 16969
Epoch time:      09050.11212664
Element set:     507
Inclination:      098.7049 deg
RA of node:       077.3371 deg
Eccentricity:    0.0012332
Arg of perigee:   177.8774 deg
Mean anomaly:     182.2477 deg
Mean motion:   14.27379650 rev/day
Decay rate:       -9.7e-07 rev/day^2
Epoch rev:           16666
Checksum:              326

Satellite: NOAA-11
Catalog number: 19531
Epoch time:      09050.32334044
Element set:     518
Inclination:      098.7843 deg
RA of node:       142.0996 deg
Eccentricity:    0.0012384
Arg of perigee:   084.1737 deg
Mean anomaly:     276.0856 deg
Mean motion:   14.14888309 rev/day
Decay rate:      -1.87e-06 rev/day^2
Epoch rev:            5285
Checksum:              317

Satellite: NOAA-12
Catalog number: 21263
Epoch time:      09049.98293494
Element set:    0030
Inclination:      098.7733 deg
RA of node:       057.9824 deg
Eccentricity:    0.0012987
Arg of perigee:   126.0205 deg
Mean anomaly:     234.2185 deg
Mean motion:   14.25566951 rev/day
Decay rate:        4.0e-08 rev/day^2
Epoch rev:           92355
Checksum:              314

